Weather History for Marion, SC

Change the Weather History Date:

Wednesday, November 21, 2012

  Actual Average (KFLO) Record (KFLO)
Temperature  
Mean Temperature 50 °F 54 °F  
Max Temperature 60 °F 66 °F 80 °F (1977)
Min Temperature 39 °F 42 °F 22 °F (1951)
Degree Days  
Heating Degree Days 16 12  
Month to date heating degree days 188  
Since 1 July heating degree days 305  
Cooling Degree Days 0 0  
Month to date cooling degree days 16  
Year to date cooling degree days 2058  
Moisture  
Dew Point 42 °F    
Average Humidity 83    
Maximum Humidity 100    
Minimum Humidity 51    
Precipitation  
Precipitation 0.00 in 0.10 in 1.52 in (2005)
Month to date precipitation 1.85  
Year to date precipitation 39.08  
Sea Level Pressure  
Sea Level Pressure 30.11 in    
Wind  
Wind Speed 3 mph (North)    
Max Wind Speed 14 mph    
Max Gust Speed 18 mph    
Visibility 8 miles    
Events      
T = Trace of Precipitation, MM = Missing Value Source: NWS Daily Summary

Daily Weather History Graph

Daily Weather History Graph

Search for Another Location

Airport:

Trip Planner

Search our weather history database for the weather conditions in past years. The results will help you decide how hot, cold, wet, or windy it might be!

Date:

Astronomy

Nov. 21, 2012 Rise Set
Actual Time 6:56 AM EST 5:10 PM EST
Civil Twilight 6:29 AM EST 5:37 PM EST
Nautical Twilight 5:58 AM EST 6:07 PM EST
Astronomical Twilight 5:28 AM EST 6:37 PM EST
Moon 1:10 PM EST (11/21) 12:30 AM EST (11/21)
Length of Visible Light 11h 07m
Length of Day
10h 13m
First Quarter, 61% of the Moon is Illuminated
Nov 21
First Quarter
Nov 28
Full
Dec 6
Last Quarter
Dec 13
New
Dec 20
First Quarter

Hourly Weather History & Observations

Time (EST) Temp. Windchill Dew Point Humidity Pressure Visibility Wind Dir Wind Speed Gust Speed Precip Events Conditions
12:15 AM 42.8 °F - 42.8 °F 100% 30.08 in 1.8 mi Calm Calm - N/A   Mist
12:35 AM 42.8 °F - 42.8 °F 100% 30.09 in 7.0 mi Calm Calm - N/A   Clear
12:55 AM 42.8 °F - 42.8 °F 100% 30.09 in 7.0 mi Calm Calm - N/A   Clear
1:15 AM 42.8 °F - 42.8 °F 100% 30.08 in 5.0 mi Calm Calm - N/A   Clear
1:35 AM 41.0 °F - 41.0 °F 100% 30.08 in 7.0 mi Calm Calm - N/A   Clear
1:55 AM 41.0 °F - 41.0 °F 100% 30.08 in 7.0 mi Calm Calm - N/A   Clear
2:15 AM 41.0 °F - 41.0 °F 100% 30.08 in 5.0 mi Calm Calm - N/A   Clear
2:35 AM 41.0 °F - 41.0 °F 100% 30.08 in 7.0 mi Calm Calm - N/A   Clear
2:55 AM 41.0 °F - 41.0 °F 100% 30.08 in 7.0 mi Calm Calm - N/A   Clear
3:15 AM 41.0 °F - 41.0 °F 100% 30.07 in 3.0 mi Calm Calm - N/A   Clear
3:35 AM 41.0 °F - 41.0 °F 100% 30.08 in 4.0 mi Calm Calm - N/A   Clear
3:55 AM 41.0 °F 39.0 °F 41.0 °F 100% 30.08 in 4.0 mi North 3.5 mph - N/A   Clear
4:15 AM 41.0 °F 39.0 °F 41.0 °F 100% 30.08 in 5.0 mi North 3.5 mph - N/A   Clear
4:35 AM 41.0 °F - 41.0 °F 100% 30.08 in 7.0 mi Calm Calm - N/A   Clear
4:55 AM 41.0 °F 39.0 °F 41.0 °F 100% 30.09 in 7.0 mi North 3.5 mph - N/A   Clear
5:15 AM 41.0 °F - 41.0 °F 100% 30.09 in 7.0 mi Calm Calm - N/A   Clear
5:35 AM 41.0 °F 39.0 °F 41.0 °F 100% 30.10 in 5.0 mi North 3.5 mph - N/A   Clear
5:55 AM 39.2 °F - 39.2 °F 100% 30.10 in 5.0 mi Calm Calm - N/A   Clear
6:15 AM 39.2 °F - 39.2 °F 100% 30.10 in 5.0 mi Calm Calm - N/A   Clear
6:55 AM 39.2 °F - 39.2 °F 100% 30.10 in 4.0 mi Calm Calm - N/A   Clear
7:15 AM 41.0 °F - 41.0 °F 100% 30.11 in 4.0 mi Calm Calm - N/A   Clear
7:35 AM 41.0 °F 39.0 °F 41.0 °F 100% 30.12 in 4.0 mi North 3.5 mph - N/A   Clear
7:55 AM 42.8 °F 40.1 °F 42.8 °F 100% 30.12 in 5.0 mi North 4.6 mph - N/A   Clear
8:15 AM 42.8 °F 39.3 °F 42.8 °F 100% 30.13 in 5.0 mi North 5.8 mph - N/A   Clear
8:35 AM 44.6 °F 42.2 °F 44.6 °F 100% 30.13 in 7.0 mi North 4.6 mph - N/A   Clear
8:55 AM 46.4 °F 45.2 °F 46.4 °F 100% 30.14 in 7.0 mi North 3.5 mph - N/A   Clear
9:15 AM 50.0 °F - 46.4 °F 87% 30.14 in 7.0 mi North 6.9 mph - N/A   Clear
9:35 AM 50.0 °F - 46.4 °F 87% 30.14 in 10.0 mi North 8.1 mph - N/A   Clear
9:55 AM 51.8 °F - 46.4 °F 82% 30.14 in 10.0 mi North 9.2 mph 16.1 mph N/A   Clear
10:15 AM 53.6 °F - 46.4 °F 77% 30.14 in 10.0 mi NNE 10.4 mph - N/A   Scattered Clouds
10:35 AM 53.6 °F - 44.6 °F 72% 30.13 in 10.0 mi NNE 13.8 mph 18.4 mph N/A   Scattered Clouds
10:55 AM 55.4 °F - 44.6 °F 67% 30.13 in 10.0 mi North 11.5 mph 17.3 mph N/A   Scattered Clouds
11:15 AM 55.4 °F - 42.8 °F 63% 30.12 in 10.0 mi NNE 10.4 mph 16.1 mph N/A   Scattered Clouds
11:55 AM 57.2 °F - 42.8 °F 59% 30.11 in 10.0 mi North 8.1 mph - N/A   Clear
12:15 PM 59.0 °F - 42.8 °F 55% 30.10 in 10.0 mi North 12.7 mph 17.3 mph N/A   Clear
12:35 PM 59.0 °F - 42.8 °F 55% 30.10 in 10.0 mi North 12.7 mph - N/A   Clear
12:55 PM 59.0 °F - 42.8 °F 55% 30.09 in 10.0 mi North 10.4 mph 18.4 mph N/A   Clear
1:15 PM 59.0 °F - 42.8 °F 55% 30.09 in 10.0 mi North 6.9 mph 18.4 mph N/A   Clear
1:35 PM 59.0 °F - 44.6 °F 59% 30.08 in 10.0 mi North 8.1 mph - N/A   Clear
1:55 PM 60.8 °F - 42.8 °F 52% 30.08 in 10.0 mi North 11.5 mph 16.1 mph N/A   Clear
2:15 PM 60.8 °F - 42.8 °F 52% 30.08 in 10.0 mi North 12.7 mph 16.1 mph N/A   Clear
2:35 PM 60.8 °F - 42.8 °F 52% 30.07 in 10.0 mi North 9.2 mph - N/A   Clear
2:55 PM 59.0 °F - 41.0 °F 51% 30.07 in 10.0 mi North 11.5 mph 17.3 mph N/A   Clear
3:15 PM 60.8 °F - 42.8 °F 52% 30.07 in 10.0 mi North 12.7 mph 17.3 mph N/A   Clear
3:35 PM 59.0 °F - 41.0 °F 51% 30.07 in 10.0 mi North 10.4 mph - N/A   Clear
3:55 PM 59.0 °F - 41.0 °F 51% 30.08 in 10.0 mi North 8.1 mph - N/A   Clear
4:15 PM 57.2 °F - 41.0 °F 55% 30.08 in 10.0 mi NNW 5.8 mph - N/A   Clear
4:35 PM 55.4 °F - 41.0 °F 58% 30.08 in 10.0 mi North 6.9 mph - N/A   Clear
4:55 PM 55.4 °F - 41.0 °F 58% 30.09 in 10.0 mi North 6.9 mph - N/A   Clear
5:15 PM 53.6 °F - 41.0 °F 62% 30.09 in 10.0 mi NNW 4.6 mph - N/A   Clear
5:35 PM 53.6 °F - 41.0 °F 62% 30.10 in 10.0 mi NNW 3.5 mph - N/A   Clear
5:55 PM 51.8 °F - 41.0 °F 67% 30.10 in 10.0 mi NNW 3.5 mph - N/A   Clear
6:15 PM 50.0 °F - 42.8 °F 76% 30.11 in 10.0 mi NNW 3.5 mph - N/A   Clear
6:35 PM 46.4 °F - 42.8 °F 87% 30.11 in 10.0 mi Calm Calm - N/A   Clear
6:55 PM 44.6 °F - 42.8 °F 93% 30.12 in 10.0 mi Calm Calm - N/A   Clear
7:15 PM 44.6 °F - 42.8 °F 93% 30.13 in 10.0 mi Calm Calm - N/A   Clear
7:35 PM 44.6 °F - 42.8 °F 93% 30.13 in 10.0 mi Calm Calm - N/A   Clear
7:55 PM 42.8 °F 40.1 °F 42.8 °F 100% 30.13 in 10.0 mi North 4.6 mph - N/A   Clear
8:15 PM 42.8 °F 41.1 °F 41.0 °F 93% 30.14 in 10.0 mi North 3.5 mph - N/A   Clear
8:35 PM 42.8 °F 40.1 °F 42.8 °F 100% 30.14 in 10.0 mi NNE 4.6 mph - N/A   Clear
8:55 PM 41.0 °F 38.0 °F 41.0 °F 100% 30.15 in 10.0 mi North 4.6 mph - N/A   Clear
9:15 PM 41.0 °F 39.0 °F 41.0 °F 100% 30.15 in 10.0 mi North 3.5 mph - N/A   Clear
9:35 PM 41.0 °F 38.0 °F 41.0 °F 100% 30.15 in 10.0 mi North 4.6 mph - N/A   Clear
9:55 PM 42.8 °F 40.1 °F 39.2 °F 87% 30.14 in 10.0 mi North 4.6 mph - N/A   Clear
10:15 PM 42.8 °F 40.1 °F 37.4 °F 81% 30.14 in 10.0 mi North 4.6 mph - N/A   Clear
10:35 PM 42.8 °F 40.1 °F 37.4 °F 81% 30.14 in 10.0 mi North 4.6 mph - N/A   Clear
10:55 PM 42.8 °F 40.1 °F 37.4 °F 81% 30.14 in 10.0 mi NNE 4.6 mph - N/A   Clear
11:15 PM 42.8 °F 41.1 °F 37.4 °F 81% 30.14 in 10.0 mi North 3.5 mph - N/A   Clear
11:35 PM 41.0 °F - 37.4 °F 87% 30.15 in 10.0 mi Calm Calm - N/A   Clear
11:55 PM 39.2 °F - 37.4 °F 93% 30.15 in 10.0 mi Calm Calm - N/A   Clear